Terug naar catalogus

CZ-4C R/B

ActiefLEO
NORAD 36416·ROCKET BODY·🇨🇳 China

Gelanceerd Mar 5, 2010 vanaf Jiuquan Satellite Launch Center

Loading…

Volgende Passages (komende 24 uur)

TLE

VersSource: Space-Track

Epoch: Sep 14, 2026, 23:33 UTC

1 36416U 10009D   26257.98135028  .00001408  00000-0  25123-3 0  9997
2 36416  63.3827 159.1770 0707805   4.0430 356.5925 13.73383059826912

Volg CZ-4C R/B in realtime met AllMySat

Download on the App Store